Weather History for KGTF - August, 2013

Change the Weather History Date:

Wednesday, August 28, 2013

  Actual Average Record
Temperature  
Mean Temperature 73 °F 63 °F  
Max Temperature 92 °F 78 °F 99 °F (2012)
Min Temperature 53 °F 48 °F 35 °F (1918)
Degree Days  
Heating Degree Days 0 4  
Month to date heating degree days 8 58  
Since 1 June heating degree days 196 299  
Since 1 July heating degree days 24 108  
Cooling Degree Days 8 2  
Month to date cooling degree days 151 107  
Year to date cooling degree days 355 270  
Since 1 June cooling degree days 352 263  
Growing Degree Days 22 (Base 50)    
Moisture  
Dew Point 48 °F    
Average Humidity 44    
Maximum Humidity 67    
Minimum Humidity 21    
Precipitation  
Precipitation 0.06 in 0.05 in 0.60 in (1951)
Month to date precipitation 1.07 1.40  
Year to date precipitation 8.88 11.16  
Snow  
Snow 0.00 in 0.10 in 0.00 in (2002)
Month to date snowfall 0.0 0.3  
Since 1 June snowfall 0.0 0.6  
Since 1 July snowfall 0.0 0.3  
Snow Depth 0.00 in    
Sea Level Pressure  
Sea Level Pressure 29.88 in    
Wind  
Wind Speed 7 mph (SW)    
Max Wind Speed 30 mph    
Max Gust Speed 36 mph    
Visibility 9 miles    
Events Rain    
T = Trace of Precipitation, MM = Missing Value Source: NWS Daily Summary

Daily Weather History Graph

Daily Weather History Graph

Search for Another Location

Airport or City:

Trip Planner

Search our weather history database for the weather conditions in past years. The results will help you decide how hot, cold, wet, or windy it might be!

Date:

Astronomy

Aug. 28, 2013 Rise Set
Actual Time 6:39 AM MDT 8:12 PM MDT
Civil Twilight 6:07 AM MDT 8:45 PM MDT
Nautical Twilight 5:27 AM MDT 9:24 PM MDT
Astronomical Twilight 4:45 AM MDT 10:06 PM MDT
Moon No Moon Rise 3:05 PM MDT (8/28)
Length of Visible Light 14h 37m
Length of Day
13h 33m
Waning Gibbous, 47% of the Moon is Illuminated
Aug 28
Waning Gibbous
Sep 5
New
Sep 12
First Quarter
Sep 19
Full
Sep 26
Last Quarter

Hourly Weather History & Observations

Time (MDT) Temp. Dew Point Humidity Pressure Visibility Wind Dir Wind Speed Gust Speed Precip Events Conditions
12:53 AM 66.0 °F 43.0 °F 43% 29.85 in 9.0 mi SSW 11.5 mph - N/A   Clear
1:53 AM 62.1 °F 42.1 °F 48% 29.85 in 9.0 mi West 8.1 mph - N/A   Clear
2:53 AM 63.0 °F 43.0 °F 48% 29.84 in 9.0 mi South 6.9 mph - N/A   Clear
3:53 AM 63.0 °F 43.0 °F 48% 29.83 in 9.0 mi South 8.1 mph - N/A   Clear
4:53 AM 60.1 °F 42.1 °F 51% 29.83 in 9.0 mi Calm Calm - N/A   Clear
5:53 AM 54.0 °F 42.1 °F 64% 29.85 in 9.0 mi WNW 3.5 mph - N/A   Clear
6:53 AM 55.9 °F 43.0 °F 62% 29.86 in 8.0 mi Calm Calm - N/A   Clear
7:53 AM 63.0 °F 46.0 °F 54% 29.87 in 9.0 mi Calm Calm - N/A   Clear
8:53 AM 72.0 °F 43.0 °F 35% 29.87 in 9.0 mi SW 5.8 mph - N/A   Clear
9:53 AM 77.0 °F 43.0 °F 30% 29.86 in 10.0 mi SW 4.6 mph - N/A   Clear
10:53 AM 84.0 °F 46.9 °F 27% 29.85 in 10.0 mi SSE 6.9 mph - N/A   Clear
11:53 AM 89.1 °F 46.9 °F 23% 29.83 in 10.0 mi SSW 9.2 mph - N/A   Clear
12:53 PM 89.1 °F 45.0 °F 22% 29.81 in 10.0 mi SE 5.8 mph - N/A   Clear
1:53 PM 89.1 °F 46.0 °F 22% 29.80 in 10.0 mi WNW 11.5 mph - N/A   Partly Cloudy
2:53 PM 84.0 °F 48.9 °F 29% 29.83 in 10.0 mi WSW 24.2 mph 27.6 mph 0.00 in Rain Light Rain
3:13 PM 77.0 °F 48.2 °F 36% 29.96 in 8.0 mi NNW 20.7 mph 35.7 mph 0.00 in Rain Light Rain
3:26 PM 69.8 °F 51.8 °F 53% 29.96 in 2.0 mi NW 18.4 mph 33.4 mph 0.06 in Rain Light Rain
3:35 PM 69.8 °F 53.6 °F 56% 29.98 in 8.0 mi NW 12.7 mph - 0.06 in Rain Light Rain
3:53 PM 70.0 °F 54.0 °F 57% 29.92 in 10.0 mi NNW 5.8 mph - 0.06 in Rain Light Rain
4:53 PM 78.1 °F 52.0 °F 40% 29.92 in 10.0 mi Variable 3.5 mph - N/A   Partly Cloudy
5:53 PM 79.0 °F 48.9 °F 35% 29.92 in 10.0 mi SSE 3.5 mph - N/A   Clear
6:53 PM 78.1 °F 52.0 °F 40% 29.91 in 10.0 mi South 5.8 mph - N/A   Clear
7:53 PM 70.0 °F 55.0 °F 59% 29.92 in 10.0 mi South 8.1 mph - N/A   Clear
8:53 PM 64.0 °F 54.0 °F 70% 29.92 in 10.0 mi South 6.9 mph - N/A   Clear
9:53 PM 64.0 °F 52.0 °F 65% 29.92 in 10.0 mi South 5.8 mph - N/A   Clear
10:53 PM 64.9 °F 54.0 °F 68% 29.91 in 10.0 mi South 8.1 mph - N/A   Clear
11:53 PM 64.9 °F 53.1 °F 65% 29.92 in 10.0 mi South 10.4 mph - N/A   Clear